Weather in selo imeni Michurina

Russia / Republic of Dagestan     42°10′41″N   48°11′48″E
temp.,
°C
wind,
m/s
gust,
m/s
humid.,
%
clouds,
%
prec.,
mm/h
press.,
hPa
HPBL,
m
27 october, wed
wed2700:00+9nw346197 0.1 1033893
03:00+9nw225992 0.1 1033815
06:00+8wsw226199 0.0 1033382
09:00+9sse23625 0.0 1032670
12:00+11se67665 0.0 1030989
15:00+12se786152 0.0 10281218
18:00+12se786246 0.0 10281209
21:00+12sse786583 0.0 10271117
28 october, thu
thu2800:00+13sse46641 0.0 1024900
03:00+11w34680 0.0 1022224
06:00+11w33660 0.0 1022238
09:00+12w34630 0.0 1023329
12:00+13nne22670 0.0 1022479
15:00+12nnw33740 0.0 1021308
18:00+14nw45680 0.0 1021338
21:00+13w23690 0.0 1022237
29 october, fri
fri2900:00+13nnw33580 0.0 1021621
03:00+13w32630 0.0 1022271
06:00+12wsw33693 0.0 1023131
09:00+13ssw11545 0.0 1024168
12:00+14e3359100 0.0 1024582
15:00+14n3358100 0.0 1025541
18:00+14nw3358100 0.0 1027636
21:00+14nw2358100 0.0 1027576
30 october, sat
sat3000:00+13nw3356100 0.0 1028660
03:00+13nnw3355100 0.0 1028658
06:00+13nnw3358100 0.0 1030596
09:00+13nnw4354100 0.0 1031701
12:00+13n3355100 0.0 1031694
15:00+13n2256100 0.0 1031669
18:00+13ne226074 0.0 1032612
21:00+13ese11625 0.0 1032494
31 october, sun
sun3100:00+13s12635 0.0 1032579
03:00+12s23662 0.0 1031551
06:00+12s23683 0.0 1031411
09:00+13sse34675 0.0 1031521
12:00+13se567017 0.0 1030635
15:00+14se6773100 0.0 1028817
18:00+13sse5677100 0.1 1028673
21:00+14sse4775100 0.1 1027627